{"data":{"norad_id":45920,"intl_designator":"2020-048A","name":"KOREASAT 116","alt_names":[],"object_type":"PAYLOAD","status":"ACTIVE","operator":null,"country":"SKOR","launch_date":"2020-07-20","launch_site_code":"AFETR","launch_vehicle":null,"mission":null,"orbit_class":"UNKNOWN","rcs_meters":null,"size_class":null,"mass_kg":null,"dimensions":null,"purposes":["comms"],"wikipedia_slug":null,"has_3d_model":false,"image_url":null,"decayed_at":null,"tle_current":{"epoch":"2026-09-20T00:22:01.269408Z","epoch_age_seconds":63849,"freshness":"FRESH","line1":"1 45920U 20048A   26263.01529247  .00000000  00000+0  00000+0 0  9991","line2":"2 45920   0.0193 145.9119 0001032  35.4011 299.3272  1.00268211 22598","mean_motion":1.00268211,"eccentricity":0.0001032,"inclination_deg":0.0193,"raan_deg":145.9119,"arg_perigee_deg":35.4011,"mean_anomaly_deg":299.3272,"bstar":0,"rev_number":2259,"period_min":1436.1480928387,"perigee_km":35783.245409151,"apogee_km":35791.948416631,"semimajor_km":42165.733912891,"source":"CELESTRAK","updated_at":"2026-09-20T09:00:35.294243Z"}}}